Torna al catalogo

QIANFAN-226

AttivoComunicazioniPO
NORAD 69855·PAYLOAD·🇨🇳 China

Lanciato Jul 5, 2026 da Wenchang Space Launch Site

Loading…

Prossimi Passaggi (prossime 24 ore)

TLE

AggiornatoSource: Space-Track

Epoca: Sep 14, 2026, 11:05 UTC

1 69855U 26155H   26257.46245939 -.01765198  00000-0 -27825+1 0  9999
2 69855  89.0071  54.3390 0037943  33.6665 326.6887 13.53808381  9907

Traccia QIANFAN-226 in tempo reale con AllMySat

Download on the App Store